Terug naar catalogus

STARLINK-6050

ActiefCommunicatieVLEO
NORAD 56458·PAYLOAD·🇺🇸 United States

Gelanceerd May 10, 2023 vanaf Vandenberg Space Force Base

Loading…

Volgende Passages (komende 24 uur)

TLE

VersSource: CelesTrak SupGP

Epoch: Sep 14, 2026, 21:32 UTC

1 56458C 23064L   26257.89770833 -.00015403  00000+0 -12904-2 0  2579
2 56458  70.0026  27.4641 0002830 269.9489 170.1190 14.98352078    16

Volg STARLINK-6050 in realtime met AllMySat

Download on the App Store